PIA619 OMDB-OEDF

Flight info

Callsign PIA619
Flight time 1h 9m
Altitude 27998
Route NABIX3F NABIX P699 ORMID Y856 NARMI J735 KFA DCT
Aircraft A330/H-SDE2E3FGHIJ1RWXY/LB2D1

Departure

Time 2026-04-22 12:39
Airport Dubai International Airport (OMDB)

Arrival

Time 2026-04-22 13:48
Airport King Fahd International Airport (OEDF)
Time Latitude Longitude Altitude Speed Heading
2026-04-22 12:03 25.24869 55.36290 25 ft 0 kts 211°
2026-04-22 12:26 25.24878 55.36296 28 ft 10 kts 211°
2026-04-22 12:26 25.24936 55.36335 27 ft 10 kts 212°
2026-04-22 12:26 25.24949 55.36371 26 ft 0 kts 309°
2026-04-22 12:28 25.24950 55.36369 25 ft 2 kts 309°
2026-04-22 12:28 25.24974 55.36327 28 ft 11 kts 303°
2026-04-22 12:28 25.25029 55.36234 26 ft 18 kts 303°
2026-04-22 12:28 25.25101 55.36092 25 ft 24 kts 294°
2026-04-22 12:29 25.25195 55.35915 21 ft 29 kts 300°
2026-04-22 12:29 25.25281 55.35754 19 ft 25 kts 301°
2026-04-22 12:29 25.25368 55.35592 18 ft 18 kts 300°
2026-04-22 12:29 25.25443 55.35483 19 ft 19 kts 304°
2026-04-22 12:30 25.25586 55.35251 23 ft 16 kts 304°
2026-04-22 12:30 25.25662 55.35177 27 ft 14 kts 336°
2026-04-22 12:30 25.25746 55.35198 23 ft 14 kts 22°
2026-04-22 12:31 25.25839 55.35257 22 ft 16 kts 36°
2026-04-22 12:31 25.25929 55.35330 27 ft 16 kts 36°
2026-04-22 12:31 25.26009 55.35409 27 ft 14 kts 64°
2026-04-22 12:31 25.26002 55.35514 27 ft 14 kts 116°
2026-04-22 12:32 25.25952 55.35620 29 ft 17 kts 125°
2026-04-22 12:32 25.25796 55.35888 27 ft 26 kts 119°
2026-04-22 12:32 25.25695 55.36073 26 ft 30 kts 120°
2026-04-22 12:33 25.25596 55.36281 29 ft 33 kts 116°
2026-04-22 12:33 25.25481 55.36497 30 ft 24 kts 133°
2026-04-22 12:33 25.25378 55.36648 26 ft 25 kts 130°
2026-04-22 12:33 25.25281 55.36807 31 ft 25 kts 121°
2026-04-22 12:34 25.25194 55.36977 34 ft 26 kts 118°
2026-04-22 12:34 25.25094 55.37125 39 ft 24 kts 127°
2026-04-22 12:34 25.25017 55.37281 40 ft 23 kts 116°
2026-04-22 12:34 25.24932 55.37424 44 ft 22 kts 121°
2026-04-22 12:35 25.24854 55.37581 44 ft 25 kts 118°
2026-04-22 12:35 25.24764 55.37744 45 ft 25 kts 127°
2026-04-22 12:35 25.24696 55.37874 45 ft 17 kts 118°
2026-04-22 12:35 25.24681 55.37934 46 ft 7 kts 89°
2026-04-22 12:36 25.24695 55.37961 46 ft 0 kts 62°
2026-04-22 12:36 25.24705 55.37970 46 ft 5 kts 41°
2026-04-22 12:36 25.24751 55.38005 46 ft 11 kts 31°
2026-04-22 12:36 25.24820 55.37998 46 ft 11 kts 309°
2026-04-22 12:37 25.24821 55.37989 46 ft 3 kts 288°
2026-04-22 12:37 25.24818 55.38000 46 ft 0 kts 286°
2026-04-22 12:37 25.24819 55.37997 46 ft 3 kts 288°
2026-04-22 12:37 25.24824 55.37992 46 ft 0 kts 300°
2026-04-22 12:38 25.24888 55.37870 46 ft 63 kts 300°
2026-04-22 12:38 25.25295 55.37138 45 ft 155 kts 302°
2026-04-22 12:38 25.25946 55.35956 264 ft 198 kts 302°
2026-04-22 12:39 25.26674 55.34607 420 ft 216 kts 305°
2026-04-22 12:39 25.28272 55.31621 1277 ft 220 kts 303°
2026-04-22 12:39 25.28996 55.30253 1639 ft 199 kts 303°
2026-04-22 12:40 25.29500 55.28760 1908 ft 219 kts 277°
2026-04-22 12:40 25.29333 55.27108 2546 ft 217 kts 258°
2026-04-22 12:40 25.29073 55.25434 2803 ft 233 kts 260°
2026-04-22 12:40 25.28847 55.23619 3173 ft 241 kts 262°
2026-04-22 12:41 25.28652 55.21778 3717 ft 241 kts 262°
2026-04-22 12:41 25.28466 55.19932 4098 ft 247 kts 262°
2026-04-22 12:41 25.28268 55.17992 4251 ft 260 kts 263°
2026-04-22 12:41 25.28057 55.15988 4600 ft 263 kts 263°
2026-04-22 12:42 25.27844 55.13980 4977 ft 264 kts 262°
2026-04-22 12:42 25.27629 55.11964 5367 ft 265 kts 262°
2026-04-22 12:42 25.27414 55.09954 5724 ft 268 kts 262°
2026-04-22 12:42 25.27196 55.07909 6129 ft 268 kts 262°
2026-04-22 12:43 25.26976 55.05862 6513 ft 270 kts 262°
2026-04-22 12:43 25.26751 55.03800 6911 ft 270 kts 261°
2026-04-22 12:43 25.26525 55.01733 7264 ft 273 kts 261°
2026-04-22 12:43 25.26295 54.99649 7711 ft 273 kts 262°
2026-04-22 12:44 25.26064 54.97557 8065 ft 276 kts 262°
2026-04-22 12:44 25.25831 54.95450 8523 ft 276 kts 262°
2026-04-22 12:44 25.25595 54.93336 8905 ft 279 kts 262°
2026-04-22 12:44 25.25360 54.91209 9337 ft 280 kts 262°
2026-04-22 12:45 25.25125 54.89097 9764 ft 281 kts 262°
2026-04-22 12:45 25.24886 54.86946 10179 ft 283 kts 262°
2026-04-22 12:45 25.24647 54.84786 10584 ft 285 kts 262°
2026-04-22 12:45 25.24404 54.82612 11020 ft 286 kts 262°
2026-04-22 12:46 25.24159 54.80424 11425 ft 288 kts 262°
2026-04-22 12:46 25.23912 54.78222 11885 ft 289 kts 262°
2026-04-22 12:46 25.23663 54.76005 12317 ft 292 kts 262°
2026-04-22 12:46 25.23414 54.73782 12774 ft 293 kts 262°
2026-04-22 12:47 25.23161 54.71538 13205 ft 295 kts 262°
2026-04-22 12:47 25.22911 54.69311 13673 ft 297 kts 262°
2026-04-22 12:47 25.22656 54.67045 14095 ft 298 kts 262°
2026-04-22 12:47 25.22400 54.64773 14541 ft 299 kts 262°
2026-04-22 12:48 25.22142 54.62490 14975 ft 300 kts 262°
2026-04-22 12:48 25.21883 54.60202 15410 ft 301 kts 262°
2026-04-22 12:48 25.21623 54.57907 15868 ft 302 kts 262°
2026-04-22 12:48 25.21362 54.55598 16308 ft 303 kts 262°
2026-04-22 12:49 25.21259 54.53264 16748 ft 306 kts 271°
2026-04-22 12:49 25.21501 54.50922 17185 ft 309 kts 279°
2026-04-22 12:49 25.22025 54.48646 17605 ft 311 kts 284°
2026-04-22 12:49 25.22604 54.46340 18050 ft 312 kts 284°
2026-04-22 12:50 25.23174 54.44026 18433 ft 313 kts 283°
2026-04-22 12:50 25.23724 54.41700 18817 ft 314 kts 282°
2026-04-22 12:50 25.24261 54.39356 19197 ft 315 kts 282°
2026-04-22 12:50 25.24788 54.37000 19567 ft 316 kts 282°
2026-04-22 12:51 25.25311 54.34639 19946 ft 318 kts 282°
2026-04-22 12:51 25.25835 54.32261 20328 ft 319 kts 281°
2026-04-22 12:51 25.26354 54.29908 20699 ft 320 kts 281°
2026-04-22 12:51 25.26881 54.27515 21076 ft 322 kts 281°
2026-04-22 12:52 25.27412 54.25107 21445 ft 323 kts 281°
2026-04-22 12:52 25.27945 54.22693 21802 ft 325 kts 281°
2026-04-22 12:52 25.28481 54.20261 22181 ft 326 kts 281°
2026-04-22 12:52 25.29019 54.17824 22545 ft 328 kts 281°
2026-04-22 12:53 25.29562 54.15369 22898 ft 329 kts 281°
2026-04-22 12:53 25.30106 54.12904 23251 ft 331 kts 281°
2026-04-22 12:53 25.30652 54.10426 23567 ft 333 kts 281°
2026-04-22 12:53 25.31193 54.07974 23890 ft 333 kts 281°
2026-04-22 12:54 25.31740 54.05484 24204 ft 334 kts 281°
2026-04-22 12:54 25.32288 54.02989 24525 ft 335 kts 281°
2026-04-22 12:54 25.32837 54.00486 24839 ft 336 kts 281°
2026-04-22 12:54 25.33387 53.97976 25156 ft 337 kts 281°
2026-04-22 12:55 25.33751 53.96309 25347 ft 337 kts 281°
2026-04-22 12:55 25.34491 53.92929 25789 ft 339 kts 281°
2026-04-22 12:55 25.35044 53.90399 26098 ft 340 kts 281°
2026-04-22 12:55 25.35601 53.87851 26405 ft 341 kts 281°
2026-04-22 12:56 25.36158 53.85304 26711 ft 342 kts 281°
2026-04-22 12:56 25.36709 53.82780 27015 ft 343 kts 281°
2026-04-22 12:56 25.37269 53.80219 27311 ft 344 kts 281°
2026-04-22 12:56 25.37831 53.77642 27613 ft 345 kts 281°
2026-04-22 12:57 25.38395 53.75059 27900 ft 346 kts 281°
2026-04-22 12:57 25.38960 53.72468 28019 ft 347 kts 281°
2026-04-22 12:57 25.39525 53.69875 28029 ft 347 kts 281°
2026-04-22 12:58 25.40655 53.64691 28034 ft 346 kts 281°
2026-04-22 12:58 25.41783 53.59508 28033 ft 346 kts 281°
2026-04-22 12:59 25.42901 53.54368 28038 ft 346 kts 281°
2026-04-22 12:59 25.44024 53.49189 28040 ft 346 kts 281°
2026-04-22 13:00 25.45144 53.44017 28039 ft 346 kts 281°
2026-04-22 13:00 25.46262 53.38843 28037 ft 346 kts 281°
2026-04-22 13:01 25.47376 53.33676 28039 ft 345 kts 281°
2026-04-22 13:01 25.48481 53.28536 28042 ft 345 kts 281°
2026-04-22 13:02 25.49591 53.23369 28045 ft 345 kts 281°
2026-04-22 13:02 25.50699 53.18203 28042 ft 345 kts 281°
2026-04-22 13:03 25.51804 53.13033 28044 ft 345 kts 281°
2026-04-22 13:03 25.52901 53.07898 28047 ft 345 kts 281°
2026-04-22 13:04 25.54002 53.02729 28047 ft 345 kts 281°
2026-04-22 13:04 25.55102 52.97563 28050 ft 345 kts 281°
2026-04-22 13:05 25.56297 52.92414 28052 ft 347 kts 285°
2026-04-22 13:05 25.58437 52.87637 28051 ft 353 kts 300°
2026-04-22 13:06 25.61312 52.83214 28053 ft 354 kts 301°
2026-04-22 13:06 25.64173 52.78786 28056 ft 353 kts 301°
2026-04-22 13:07 25.66998 52.74328 28055 ft 353 kts 300°
2026-04-22 13:07 25.69807 52.69865 28062 ft 353 kts 300°
2026-04-22 13:08 25.72593 52.65430 28059 ft 353 kts 300°
2026-04-22 13:08 25.75398 52.60963 28063 ft 353 kts 300°
2026-04-22 13:09 25.78202 52.56489 28065 ft 353 kts 300°
2026-04-22 13:09 25.81004 52.52014 28063 ft 353 kts 300°
2026-04-22 13:10 25.83783 52.47570 28066 ft 353 kts 300°
2026-04-22 13:10 25.86639 52.42989 28071 ft 369 kts 300°
2026-04-22 13:11 25.89621 52.38204 28069 ft 385 kts 300°
2026-04-22 13:11 25.92723 52.33229 28072 ft 398 kts 300°
2026-04-22 13:12 25.95903 52.28128 28073 ft 409 kts 301°
2026-04-22 13:12 25.99176 52.22872 28079 ft 419 kts 301°
2026-04-22 13:13 26.02517 52.17500 28080 ft 424 kts 301°
2026-04-22 13:13 26.05870 52.12108 28082 ft 424 kts 301°
2026-04-22 13:14 26.09227 52.06701 28079 ft 424 kts 301°
2026-04-22 13:14 26.12550 52.01342 28083 ft 424 kts 301°
2026-04-22 13:15 26.15891 51.95943 28071 ft 423 kts 301°
2026-04-22 13:15 26.19218 51.90551 28091 ft 423 kts 301°
2026-04-22 13:16 26.22549 51.85166 28077 ft 422 kts 301°
2026-04-22 13:16 26.25626 51.79676 28082 ft 419 kts 294°
2026-04-22 13:17 26.27895 51.73726 28084 ft 417 kts 289°
2026-04-22 13:17 26.30014 51.67719 28083 ft 417 kts 289°
2026-04-22 13:18 26.32157 51.61722 28079 ft 417 kts 289°
2026-04-22 13:18 26.33954 51.56732 28086 ft 417 kts 289°
2026-04-22 13:19 26.36468 51.49761 28086 ft 417 kts 289°
2026-04-22 13:19 26.38630 51.43755 28090 ft 417 kts 289°
2026-04-22 13:20 26.40426 51.38758 28088 ft 418 kts 289°
2026-04-22 13:20 26.42585 51.32744 28090 ft 418 kts 289°
2026-04-22 13:21 26.44743 51.26724 28087 ft 417 kts 289°
2026-04-22 13:21 26.46892 51.20718 28089 ft 416 kts 289°
2026-04-22 13:22 26.49021 51.14761 28088 ft 416 kts 289°
2026-04-22 13:22 26.51519 51.07757 28091 ft 415 kts 289°
2026-04-22 13:23 26.53636 51.01815 28085 ft 409 kts 289°
2026-04-22 13:23 26.54336 50.99857 28093 ft 395 kts 289°
2026-04-22 13:23 26.55330 50.97085 28090 ft 374 kts 288°
2026-04-22 13:23 26.56255 50.93407 27616 ft 375 kts 277°
2026-04-22 13:24 26.56409 50.91500 27266 ft 370 kts 270°
2026-04-22 13:24 26.56232 50.88671 26742 ft 364 kts 260°
2026-04-22 13:24 26.55534 50.85940 26344 ft 366 kts 247°
2026-04-22 13:24 26.54254 50.83507 26598 ft 360 kts 239°
2026-04-22 13:25 26.52855 50.81249 26975 ft 348 kts 239°
2026-04-22 13:25 26.51575 50.79071 27337 ft 320 kts 241°
2026-04-22 13:25 26.50489 50.77023 27707 ft 293 kts 244°
2026-04-22 13:25 26.49552 50.75099 28065 ft 274 kts 246°
2026-04-22 13:26 26.48695 50.73245 28084 ft 271 kts 246°
2026-04-22 13:26 26.47843 50.71358 27876 ft 279 kts 246°
2026-04-22 13:26 26.46931 50.69309 26752 ft 302 kts 246°
2026-04-22 13:26 26.46020 50.67219 25637 ft 296 kts 247°
2026-04-22 13:27 26.45142 50.65180 24584 ft 288 kts 247°
2026-04-22 13:27 26.44295 50.63190 23575 ft 280 kts 247°
2026-04-22 13:27 26.43476 50.61246 22477 ft 274 kts 247°
2026-04-22 13:27 26.42665 50.59353 21520 ft 267 kts 244°
2026-04-22 13:28 26.41780 50.57616 20629 ft 255 kts 241°
2026-04-22 13:28 26.40842 50.55924 19216 ft 260 kts 240°
2026-04-22 13:28 26.39875 50.54212 17767 ft 269 kts 240°
2026-04-22 13:28 26.38958 50.52377 16243 ft 271 kts 244°
2026-04-22 13:29 26.38116 50.50502 14818 ft 269 kts 245°
2026-04-22 13:29 26.37307 50.48654 13655 ft 260 kts 245°
2026-04-22 13:29 26.36528 50.46878 12431 ft 250 kts 244°
2026-04-22 13:29 26.35769 50.45163 11233 ft 244 kts 244°
2026-04-22 13:30 26.35017 50.43479 10088 ft 241 kts 243°
2026-04-22 13:30 26.34267 50.41816 8890 ft 239 kts 242°
2026-04-22 13:30 26.33506 50.40150 7701 ft 243 kts 242°
2026-04-22 13:30 26.32747 50.38504 6536 ft 241 kts 242°
2026-04-22 13:31 26.31975 50.36846 5458 ft 239 kts 242°
2026-04-22 13:31 26.31221 50.35264 4812 ft 222 kts 244°
2026-04-22 13:31 26.30524 50.33816 4423 ft 201 kts 245°
2026-04-22 13:31 26.30110 50.32425 4169 ft 181 kts 266°
2026-04-22 13:32 26.30155 50.31066 3840 ft 171 kts 285°
2026-04-22 13:32 26.30559 50.29838 3638 ft 170 kts 302°
2026-04-22 13:32 26.31146 50.28698 3531 ft 176 kts 294°
2026-04-22 13:32 26.31390 50.27281 3941 ft 200 kts 276°
2026-04-22 13:33 26.31353 50.25634 4062 ft 226 kts 269°
2026-04-22 13:33 26.31242 50.23869 4058 ft 230 kts 269°
2026-04-22 13:33 26.31191 50.22089 4058 ft 228 kts 272°
2026-04-22 13:33 26.31225 50.20314 4062 ft 230 kts 275°
2026-04-22 13:34 26.31332 50.18555 4066 ft 226 kts 277°
2026-04-22 13:34 26.31490 50.16803 4058 ft 228 kts 278°
2026-04-22 13:34 26.31657 50.15065 4055 ft 222 kts 278°
2026-04-22 13:34 26.31826 50.13348 4057 ft 227 kts 278°
2026-04-22 13:35 26.32001 50.11593 4058 ft 228 kts 278°
2026-04-22 13:35 26.32167 50.09836 4060 ft 226 kts 278°
2026-04-22 13:35 26.32330 50.08126 4059 ft 227 kts 278°
2026-04-22 13:35 26.32493 50.06365 4054 ft 228 kts 278°
2026-04-22 13:36 26.32650 50.04622 4062 ft 228 kts 278°
2026-04-22 13:36 26.32811 50.02863 4060 ft 227 kts 278°
2026-04-22 13:36 26.32970 50.01122 4062 ft 227 kts 278°
2026-04-22 13:36 26.33130 49.99360 4063 ft 228 kts 278°
2026-04-22 13:37 26.33288 49.97607 4062 ft 226 kts 278°
2026-04-22 13:37 26.33444 49.95868 4067 ft 225 kts 278°
2026-04-22 13:37 26.33651 49.93555 4086 ft 228 kts 278°
2026-04-22 13:37 26.33757 49.92389 4081 ft 227 kts 278°
2026-04-22 13:38 26.33916 49.90650 4083 ft 227 kts 278°
2026-04-22 13:38 26.34235 49.87139 4081 ft 226 kts 278°
2026-04-22 13:38 26.34393 49.85393 4089 ft 227 kts 278°
2026-04-22 13:39 26.34833 49.83741 4088 ft 222 kts 302°
2026-04-22 13:39 26.35924 49.82525 4164 ft 222 kts 320°
2026-04-22 13:39 26.37016 49.81267 4056 ft 228 kts 307°
2026-04-22 13:39 26.37802 49.79750 3964 ft 224 kts 294°
2026-04-22 13:40 26.38216 49.78120 3901 ft 222 kts 282°
2026-04-22 13:40 26.38247 49.76415 4021 ft 223 kts 263°
2026-04-22 13:40 26.37634 49.74808 4191 ft 229 kts 240°
2026-04-22 13:40 26.36489 49.73584 4390 ft 228 kts 217°
2026-04-22 13:41 26.35033 49.72986 4598 ft 221 kts 193°
2026-04-22 13:41 26.33509 49.73106 4825 ft 224 kts 169°
2026-04-22 13:41 26.32126 49.73911 5113 ft 227 kts 145°
2026-04-22 13:41 26.31054 49.75205 5230 ft 230 kts 134°
2026-04-22 13:42 26.30064 49.76602 4839 ft 229 kts 130°
2026-04-22 13:42 26.29144 49.78040 4450 ft 233 kts 127°
2026-04-22 13:42 26.28220 49.79570 3703 ft 242 kts 124°
2026-04-22 13:42 26.27352 49.81139 3100 ft 230 kts 120°
2026-04-22 13:43 26.26744 49.82673 2836 ft 203 kts 101°
2026-04-22 13:43 26.26768 49.84179 3058 ft 195 kts 70°
2026-04-22 13:43 26.27454 49.85440 3397 ft 189 kts 38°
2026-04-22 13:43 26.28645 49.85984 3592 ft 187 kts
2026-04-22 13:44 26.29857 49.85710 3422 ft 174 kts 330°
2026-04-22 13:44 26.30806 49.84945 3282 ft 168 kts 323°
2026-04-22 13:44 26.31702 49.84145 3112 ft 163 kts 322°
2026-04-22 13:44 26.32600 49.83330 2655 ft 169 kts 324°
2026-04-22 13:45 26.33580 49.82778 2544 ft 149 kts 342°
2026-04-22 13:45 26.34575 49.82458 2266 ft 148 kts 345°
2026-04-22 13:45 26.35546 49.82085 1994 ft 148 kts 343°
2026-04-22 13:45 26.36524 49.81800 1756 ft 144 kts 353°
2026-04-22 13:46 26.37496 49.81602 1554 ft 139 kts 351°
2026-04-22 13:46 26.38405 49.81313 1314 ft 134 kts 348°
2026-04-22 13:46 26.39297 49.80981 1092 ft 140 kts 346°
2026-04-22 13:46 26.40218 49.80661 1007 ft 135 kts 350°
2026-04-22 13:47 26.41144 49.80482 892 ft 136 kts 355°
2026-04-22 13:47 26.42073 49.80261 759 ft 138 kts 347°
2026-04-22 13:47 26.43010 49.79927 586 ft 145 kts 348°
2026-04-22 13:47 26.43997 49.79626 403 ft 150 kts 349°
2026-04-22 13:48 26.44984 49.79345 227 ft 140 kts 347°
2026-04-22 13:48 26.45873 49.79059 68 ft 125 kts 348°
2026-04-22 13:48 26.46543 49.78866 65 ft 73 kts 341°
2026-04-22 13:48 26.46862 49.78736 61 ft 26 kts 344°
2026-04-22 13:49 26.47050 49.78717 64 ft 35 kts 356°
2026-04-22 13:49 26.47283 49.78753 63 ft 32 kts 11°
2026-04-22 13:49 26.47385 49.78790 62 ft 0 kts 18°